TIME,DELAY(SENSOR),PRES,T(CTD),SAL,OXYGEN,RAWTEMP,T(OPTODE),TCPHASE,FLUOR,BETA(BETA700),BETA(BETA412),BETA(BETA440),CDOM,C(CSC),ED(ED411.90),ED(ED443.80),ED(ED489.40),ED(ED554.70),LU(LU412.20),LU(LU443.80),LU(LU489.40),LU(LU555.00),COMP,TILTX,TILTX(TILTY),CHECK
1356624120,5807,497.1499938964844000,17.1450004577636720,36.3933982849121100,223.2391052246093800,183.5861053466797000,17.1431808471679700,31.7045001983642580,50,97,96,78,69,12617,2146959213,2147515245,2147271488,2147464484,2147088713,2146956571,2147660114,2147127332,116,-1,8,26719
1356624233,5802,486.3500061035156000,17.2420005798339840,36.4124984741210940,224.8757934570312500,180.4192962646484400,17.2386894226074220,31.5769405364990230,50,96,97,81,67,12618,2146960064,2147518189,2147268562,2147462765,2147088384,2146955428,2147656822,2147127881,2847,-2,8,9063
1356624354,5803,475.2200012207031000,17.3920993804931640,36.4407997131347660,226.1696014404297000,175.5086975097656200,17.3868103027343750,31.4440803527832030,50,100,95,79,67,12616,2146957513,2147515977,2147270281,2147462235,2147090294,2146951853,2147660068,2147130240,2390,-2,8,11933
1356624475,5803,464.4299926757812500,17.4866008758544920,36.4590988159179700,227.7917022705078000,172.1965942382812500,17.4867305755615230,31.3170890808105470,50,98,96,80,68,12616,2146959954,2147514624,2147270500,2147462912,2147085403,2146952192,2147654217,2147126400,1372,-1,9,20698
1356624598,5808,453.5000000000000000,17.5576992034912100,36.4702987670898440,227.9210968017578000,169.9788970947265600,17.5536499023437500,31.2806091308593750,50,101,95,79,67,12618,2146959826,2147515300,2147268955,2147462994,2147088731,2146956507,2147658011,2147124141,241,-2,8,5367
1356624730,5805,441.7999877929687500,17.6553001403808600,36.4889984130859400,229.2711029052734400,166.6231994628906200,17.6549091339111330,31.1676292419433600,50,99,96,80,68,12615,2146959497,2147512822,2147266825,2147461266,2147078930,2146955821,2147657453,2147126299,2403,-2,9,60711
1356624843,5803,431.6600036621094000,17.7343006134033200,36.5045013427734400,230.4324951171875000,164.2037048339843800,17.7279396057128900,31.0773200988769530,50,97,95,80,66,12615,2146958875,2147516845,2147269348,2147460013,2147084534,2146962432,2147655542,2147127872,1587,-1,8,26104
1356624975,5804,419.8800048828125000,17.7914009094238280,36.5153999328613300,231.5901031494140600,161.8954925537109400,17.7976093292236330,30.9890499114990230,50,98,96,80,68,12617,2146957284,2147516050,2147270390,2147458468,2147090157,2146956534,2147651538,2147127597,683,-1,8,16069
1356625096,5807,409.0299987792969000,17.8917007446289060,36.5321006774902340,232.5924072265625000,158.9833068847656200,17.8855304718017580,30.9008502960205080,50,98,95,80,67,12614,2146957997,2147516516,2147266477,2147459081,2147085348,2146956452,2147657636,2147128539,86,-1,8,9612
1356625219,5803,398.1499938964844000,17.9437999725341800,36.5406990051269500,232.8724060058593800,157.2512054443359400,17.9378299713134770,30.8637790679931640,50,98,95,80,67,12613,2146958637,2147517531,2147268004,2147459008,2147089051,2146957952,2147654674,2147128219,3054,-1,9,9621
1356625340,5803,387.5499877929687500,17.9818992614746100,36.5471000671386700,233.0090026855468800,155.8824005126953000,17.9791698455810550,30.8389301300048830,50,99,96,80,67,12612,2146958710,2147517787,2147268937,2147456521,2147082761,2146955840,2147650048,2147124900,2168,-2,8,755
1356625475,5805,375.9100036621094000,18.0466003417968750,36.5559005737304700,232.6515045166015600,153.7839050292968800,18.0425395965576170,30.8279209136962900,50,99,95,80,67,12613,2146957394,2147516013,2147266797,2147457682,2147082203,2146956553,2147648301,2147124964,1530,-2,8,50954
1356625596,5808,365.3900146484375000,18.0774002075195300,36.5592994689941400,232.4252014160156200,152.7958984375000000,18.0723800659179700,30.8261299133300780,50,97,96,81,67,12611,2146958592,2147516178,2147266139,2147457920,2147082916,2146954870,2147651035,2147126089,920,-1,9,26844
1356625728,5805,354.1300048828125000,18.1165008544921880,36.5640983581543000,231.9114074707031200,151.4833068847656200,18.1120300292968750,30.8334102630615230,50,99,96,81,68,12614,2146957769,2147515254,2147265901,2147456713,2147077046,2146960457,2147654354,2147126637,3273,-2,9,20615
1356625851,5806,343.6799926757812500,18.1464996337890620,36.5656013488769500,230.8847961425781200,150.4364929199218800,18.1436500549316400,30.8698291778564450,50,99,97,80,66,12610,2146957979,2147516406,2147267401,2147457170,2147087597,2146959835,2147651958,2147127314,2504,-1,9,37180
1356625983,5805,332.4200134277344000,18.1881008148193360,36.5694007873535160,230.2743988037109400,149.1233978271484400,18.1833190917968750,30.8821296691894530,50,99,95,80,66,12611,2146960722,2147517824,2147267456,2147455954,2147082185,2146956937,2147647250,2147126628,1382,-1,8,25165
1356626118,5804,320.9599914550781000,18.2938995361328120,36.5825996398925800,229.6490936279297000,145.5269927978515600,18.2919902801513670,30.8649806976318360,50,99,96,81,68,12608,2146959222,2147516251,2147266166,2147456585,2147088274,2146957065,2147654957,2147126756,864,-2,9,21008
1356626239,5806,310.9400024414062500,18.3701992034912100,36.5881004333496100,228.3912048339843800,143.1645050048828000,18.3633899688720700,30.8957405090332030,50,98,96,80,67,12612,2146958939,2147515565,2147267428,2147451300,2147083419,2146958692,2147652754,2147125595,304,-1,8,59394
1356626371,5806,300.4599914550781000,18.4256000518798830,36.5934982299804700,226.8354949951172000,141.2628936767578000,18.4208698272705080,30.9478607177734380,50,98,96,79,67,12607,2146959323,2147516178,2147264292,2147453266,2147083053,2146961042,2147654409,2147126171,148,-2,8,52179
1356626516,5804,289.4899902343750000,18.5261993408203120,36.5999984741210940,225.0724945068359400,138.0496063232422000,18.5180091857910160,30.9931907653808600,50,98,96,80,68,12606,2146957659,2147518052,2147266752,2147454720,2147086107,2146956105,2147654180,2147127076,3405,-1,9,22669
1356626659,5805,279.1700134277344000,18.6341991424560550,36.6043014526367200,222.7350006103515600,134.4293060302734400,18.6274890899658200,31.0638008117675780,50,98,97,80,68,12606,2146958061,2147518354,2147266496,2147455323,2147089645,2146960676,2147654144,2147126317,3507,-1,8,52019
1356626804,5807,266.8800048828125000,18.7742996215820300,36.6044006347656250,223.2015075683593800,129.7808990478515600,18.7681102752685550,30.9775199890136720,50,99,96,81,68,12605,2146960768,2147516470,2147266624,2147456978,2147084809,2146962880,2147654948,2147126683,197,-2,8,7685
1356626914,5803,256.1400146484375000,18.9048995971679700,36.5962982177734400,225.8941040039062500,125.1013031005859400,18.9097194671630860,30.7791194915771500,50,99,96,80,67,12602,2146957924,2147514907,2147266066,2147452233,2147085622,2146959725,2147656896,2147126793,3317,-1,8,20290
1356627038,5805,244.3399963378906200,19.1035003662109380,36.6055984497070300,225.2873992919922000,118.8071975708007800,19.1002807617187500,30.7258491516113280,50,99,96,80,66,12604,2146956525,2147515035,2147264009,2147450496,2147090029,2146965540,2147660955,2147124626,3439,-2,9,33207
1356627159,5804,233.1499938964843800,19.2024993896484380,36.5919990539550800,231.9429016113281200,115.6352996826171900,19.1963500976562500,30.3558197021484380,50,101,96,81,66,12600,2146959460,2147515766,2147265755,2147451584,2147085376,2146972754,2147679049,2147125842,2231,-1,8,7441
1356627280,5806,222.1699981689453000,19.2444992065429700,36.5847015380859400,236.9503936767578000,114.1288986206054700,19.2419891357421880,30.0964393615722660,50,102,97,80,67,12603,2146956918,2147514066,2147267181,2147451501,2147086802,2146983872,2147700845,2147126390,1402,-2,9,22188
1356627404,5805,211.3699951171875000,19.3321990966796880,36.5864982604980500,240.1520996093750000,111.2742996215820300,19.3285007476806640,29.9095706939697270,50,101,96,80,66,12602,2146957568,2147516178,2147266971,2147449938,2147083702,2146990336,2147723026,2147133851,1429,-1,9,248
1356627536,5805,200.3200073242187500,19.3875007629394530,36.5878982543945300,241.3423004150390600,109.3069000244140600,19.3881206512451170,29.8287696838378900,50,100,97,80,66,12600,2146960091,2147515922,2147269312,2147447241,2147088731,2147001490,2147740251,2147135232,676,-1,9,44195
1356627591,5808,195.7899932861328000,19.4256992340087900,36.5909004211425800,240.9745025634765600,108.0485992431640600,19.4262695312500000,29.8293399810791000,50,103,96,81,67,12599,2146955785,2147517933,2147268754,2147449334,2147091437,2147012937,2147760768,2147132617,344,-2,9,25921
1356627646,5808,191.4100036621093800,19.4638004302978500,36.5932998657226560,240.2373962402343800,106.9729995727539000,19.4588794708251950,29.8495597839355470,50,102,97,81,66,12599,2146960365,2147514102,2147268233,2147448448,2147091264,2147019529,2147769938,2147134710,3577,-1,8,53987
1356627720,5804,185.8399963378906200,19.4745998382568360,36.5919990539550800,240.3173065185547000,106.4875030517578100,19.4736003875732420,29.8392906188964840,50,100,98,83,67,12600,2146960393,2147518253,2147268681,2147445924,2147093558,2147033938,2147794998,2147135853,3331,-2,9,41924
1356627775,5805,182.0200042724609400,19.5051994323730470,36.5948982238769500,240.0805969238281200,105.5541000366211000,19.5019092559814450,29.8380603790283200,50,99,96,82,66,12601,2146959177,2147518848,2147265910,2147448384,2147095561,2147034733,2147803922,2147136585,2860,-2,9,35543
1356627841,5804,177.6499938964843800,19.5659999847412100,36.5998001098632800,239.3789978027343800,103.4665985107421900,19.5652103424072270,29.8436508178710940,51,98,97,81,66,12603,2146961261,2147518774,2147269952,2147448758,2147094701,2147047780,2147821979,2147138057,2465,-2,9,41605
1356627896,5804,173.9700012207031200,19.6030998229980470,36.6021995544433600,239.2518005371093800,102.3658981323242200,19.5986003875732420,29.8353004455566400,51,100,96,80,66,12598,2146959268,2147520228,2147270994,2147447936,2147095085,2147050450,2147837833,2147141019,2186,-2,9,359
1356627951,5807,170.3500061035156200,19.6518993377685550,36.6068000793457000,238.9897003173828000,100.8332977294921900,19.6450901031494140,29.8275508880615230,52,100,97,81,66,12600,2146959963,2147521170,2147272009,2147447286,2147098468,2147064128,2147858550,2147136374,1780,-2,9,22570
1356628030,5805,165.6100006103515600,19.7217006683349600,36.6133995056152340,238.6065063476562500,98.4869232177734400,19.7162895202636720,29.8148307800292970,52,101,97,81,66,12600,2146959753,2147517732,2147273974,2147449270,2147104064,2147090075,2147893997,2147143780,1611,-1,9,50766
1356628118,5801,161.3399963378906200,19.7950000762939450,36.6184997558593750,238.2630004882812500,95.9897766113281200,19.7920799255371100,29.7986507415771500,55,101,96,81,67,12594,2146961664,2147518619,2147273856,2147445476,2147105554,2147097929,2147916214,2147141705,2130,-2,8,26937
1356628195,5804,157.6199951171875000,19.8631000518798830,36.6255989074707000,238.2509002685547000,93.8795166015625000,19.8561401367187500,29.7717609405517580,56,102,96,81,68,12593,2146959104,2147520905,2147272374,2147446043,2147108827,2147114706,2147946523,2147147035,1456,-2,9,28661
1356628283,5808,153.4600067138672000,19.9248008728027340,36.6295013427734400,238.6331939697265600,91.7567977905273400,19.9206008911132800,29.7264194488525400,53,101,97,82,67,12594,2146956196,2147518774,2147272009,2147447131,2147107565,2147090486,2147885330,2147143094,860,-2,9,16481
1356628362,5807,149.7500000000000000,19.9629993438720700,36.6315002441406250,239.2834014892578000,90.4982376098632800,19.9588298797607420,29.6799201965332030,56,106,97,81,67,12593,2146959972,2147519168,2147269394,2147445824,2147110866,2147073289,2147842057,2147141705,446,-1,9,38818
1356628450,5807,145.8500061035156200,20.0981006622314450,36.6427993774414060,239.1103973388672000,86.1152801513671900,20.0919895172119140,29.6313591003417970,57,104,97,81,67,12590,2146960256,2147520923,2147269248,2147448356,2147111908,2147084013,2147853321,2147141302,266,-2,9,62746
1356628549,5805,141.8800048828125000,20.2357006072998050,36.6533012390136700,239.1078948974609400,81.6495971679687500,20.2277297973632800,29.5737895965576170,60,105,98,81,68,12585,2146958966,2147517924,2147274532,2147445220,2147111908,2147077860,2147835026,2147138962,2953,-2,8,24072
1356628651,5808,137.8800048828125000,20.3875999450683600,36.6581001281738300,238.7915954589843800,76.8346023559570300,20.3741798400878900,29.5266094207763670,63,109,97,82,68,12577,2146959277,2147519250,2147268900,2147443776,2147112228,2147071853,2147819648,2147137609,2698,-2,9,10069
1356628761,5808,133.9700012207031200,20.4734992980957030,36.6610984802246100,238.9011993408203000,73.9195785522461000,20.4628791809082030,29.4839191436767580,67,107,98,82,66,12567,2146958409,2147516854,2147268333,2147444937,2147116297,2147066706,2147813138,2147138002,1832,-1,9,49655
1356628871,5810,130.0000000000000000,20.5965995788574220,36.6650009155273440,239.2478027343750000,69.9732818603515600,20.5830192565917970,29.4174003601074220,68,110,99,82,67,12570,2146959250,2147515730,2147271378,2147444297,2147118381,2147080640,2147817636,2147139968,1793,-2,9,33943
1356628970,5804,125.5999984741211000,20.8173999786376950,36.6755981445312500,238.5227050781250000,62.5558013916015600,20.8090000152587900,29.3558197021484380,71,117,100,83,67,12560,2146960009,2147518180,2147271012,2147441874,2147127021,2147091364,2147832493,2147138843,2189,-1,9,58585
1356629058,5805,121.7900009155273400,20.9705009460449220,36.6758003234863300,236.7384948730468800,57.6890716552734400,20.9573898315429700,29.3762092590332030,72,112,100,83,68,12555,2146961508,2147521609,2147270902,2147442880,2147151579,2147161280,2147932699,2147149732,1940,-1,8,34043
1356629313,5807,118.7399978637695300,21.7099990844726560,36.5013008117675800,249.1784973144531200,33.5741195678710940,21.6942501068115230,28.5112991333007800,76,125,104,87,63,12494,2146964516,2147523849,2147280173,2147438802,2147195675,2147268992,2148095597,2147162404,2105,-2,9,11492
1356629700,5809,113.9700012207031200,21.7672996520996100,36.4858016967773440,253.9324035644531200,31.3165493011474600,21.7633705139160160,28.2787895202636720,80,133,105,90,61,12469,2146970121,2147538560,2147304886,2147437577,2147357403,2147658340,2148704173,2147202432,1831,-2,9,45368
1356629821,5808,110.0299987792968800,21.7700004577636720,36.4846000671386700,254.3209991455078000,31.2306900024414060,21.7660007476806640,28.2609901428222660,78,135,108,89,62,12457,2146972196,2147545590,2147314825,2147436708,2147459858,2147865014,2148997869,2147227721,1937,-2,9,44824
1356629922,5807,104.8600006103515600,21.7684993743896500,36.4844017028808600,254.5516967773437500,31.2529201507568360,21.7653198242187500,28.2515506744384770,78,134,105,88,61,12460,2146977581,2147556626,2147336521,2147436032,2147613120,2148163373,2149388068,2147252461,2128,-2,9,46366
1356629977,5810,101.3499984741211000,21.7682991027832030,36.4846000671386700,254.8090057373047000,31.2371807098388670,21.7658004760742200,28.2404098510742200,78,134,105,89,62,12463,2146987712,2147568073,2147348489,2147438994,2147742345,2148413961,2149730752,2147283227,1867,-1,9,21037
1356630032,5805,97.6800003051757800,21.7693004608154300,36.4842987060546900,254.5935974121093800,31.1906700134277340,21.7672290802001950,28.2489395141601560,78,133,106,89,63,12463,2146989668,2147572315,2147362660,2147437412,2147875913,2148660041,2150035245,2147309129,1752,-2,9,35713
1356630087,5808,93.8099975585937500,21.7696990966796880,36.4838981628418000,254.6412048339843800,31.1996192932128900,21.7669506072998050,28.2470302581787100,79,136,106,89,61,12462,2147003968,2147594770,2147395419,2147440000,2148183488,2149253312,2150872630,2147378880,1709,-2,9,42078
1356630142,5803,89.8099975585937500,21.7686996459960940,36.4844017028808600,254.8471984863281200,31.2098407745361330,21.7666397094726560,28.2384300231933600,78,134,106,90,61,12463,2147015323,2147621257,2147431954,2147442057,2148536164,2149919552,2151748013,2147450203,1485,-1,9,17551
1356630216,5805,84.7799987792968800,21.7679004669189450,36.4841995239257800,254.9620971679687500,31.2392501831054700,21.7657394409179700,28.2341804504394530,76,135,106,89,61,12468,2147001490,2147586486,2147374509,2147439707,2148183323,2149011501,2150265005,2147341357,1360,-2,9,5589
1356630271,5804,81.4100036621093800,21.7677993774414060,36.4838981628418000,255.0195007324218800,31.2392501831054700,21.7657394409179700,28.2316093444824220,80,136,107,88,63,12467,2147048374,2147676059,2147518774,2147443574,2149411821,2151478628,2153740964,2147639369,1584,-2,9,10564
1356630326,5808,78.0800018310546900,21.7679004669189450,36.4832992553710940,255.0997009277343800,31.2538108825683600,21.7652893066406250,28.2283706665039060,79,135,104,89,61,12458,2147077330,2147708516,2147567003,2147448777,2149994761,2152442194,2154907410,2147759058,1659,-2,9,43668
1356630381,5807,74.7099990844726600,21.7674999237060550,36.4828987121582000,255.0736999511718800,31.2676696777343750,21.7648696899414060,28.2296905517578120,78,133,106,88,61,12457,2147074678,2147705389,2147541961,2147448000,2149931044,2152119917,2154229330,2147716470,1718,-2,9,127
1356630436,5809,71.6200027465820300,21.7670993804931640,36.4823989868164060,255.3995971679687500,31.2883300781250000,21.7642307281494140,28.2162208557128900,78,135,106,88,61,12454,2147045549,2147644544,2147447707,2147443355,2149299894,2150710555,2152129865,2147550189,1853,-2,9,23340
1356630491,5803,69.0299987792968800,21.7658004760742200,36.4830017089843750,255.4552001953125000,31.3106498718261720,21.7635498046875000,28.2140407562255860,79,131,105,89,61,12451,2147050761,2147650806,2147455469,2147444370,2149417929,2150823954,2152207104,2147566299,1560,-2,9,32321
1356630548,5801,66.6800003051757800,21.7653007507324220,36.4832992553710940,255.6253967285156200,31.3109493255615230,21.7635402679443360,28.2069396972656250,81,131,105,90,61,12455,2147069284,2147673792,2147486921,2147448064,2149848448,2151488996,2152968347,2147659172,1600,-2,9,52009
1356630603,5802,64.4199981689453100,21.7651996612548830,36.4832000732421900,255.5193023681640600,31.3276691436767580,21.7630290985107420,28.2116203308105470,82,131,108,91,61,12456,2147080521,2147692333,2147507885,2147452534,2150178624,2151957632,2153482020,2147730505,1469,-2,8,9125
1356630658,5805,62.4900016784668000,21.7656002044677730,36.4826011657714840,255.6425018310547000,31.3203907012939450,21.7632503509521500,28.2063598632812500,79,134,106,88,61,12443,2147091757,2147709915,2147537490,2147453458,2150420288,2152370221,2154001344,2147792658,1121,-1,9,60002
1356630713,5807,60.6699981689453100,21.7653999328613280,36.4826011657714840,255.5260009765625000,31.3285503387451170,21.7630004882812500,28.2113304138183600,80,133,106,88,62,12446,2147141686,2147781302,2147669796,2147467044,2151525769,2154301165,2156491968,2148065910,1007,-2,9,1861
1356630768,5805,58.7500000000000000,21.7646007537841800,36.4828987121582000,255.5502014160156200,31.3205795288085940,21.7632503509521500,28.2101306915283200,79,137,106,90,61,12454,2147125723,2147749394,2147597833,2147464027,2151280850,2153588342,2155312036,2147983131,1077,-2,9,45360
1356630823,5803,56.4099998474121100,21.7642993927001950,36.4830017089843750,255.7127075195312500,31.3411407470703120,21.7626209259033200,28.2035694122314450,81,135,104,90,61,12450,2147230500,2147911405,2147831908,2147489097,2153806683,2157733577,2160413705,2148611346,1274,-1,9,50679
1356630983,5803,48.9199981689453100,21.7633991241455080,36.4822998046875000,255.9116973876953000,31.4021091461181640,21.7607498168945300,28.1959304809570300,78,132,107,89,61,12444,2147223323,2147852324,2147709257,2147482432,2153738358,2156625728,2158174957,2148527414,1357,-1,9,55360
1356631017,5802,46.8600006103515600,21.7632007598876950,36.4823989868164060,255.8833007812500000,31.4059505462646500,21.7606296539306640,28.1973209381103500,78,132,106,88,60,12444,2147219739,2147840201,2147685257,2147483382,2153690916,2156343881,2157663314,2148517147,1400,-2,9,55409
1356631050,5802,44.6500015258789060,21.7625999450683600,36.4823989868164060,255.9340057373047000,31.4124393463134770,21.7604408264160160,28.1949901580810550,79,136,106,90,60,12443,2147225627,2147844534,2147684992,2147487835,2153825819,2156364278,2157559378,2148569764,1310,-2,9,34147
1356631083,5807,42.3699989318847660,21.7619991302490230,36.4819984436035160,255.9494018554687500,31.4309291839599600,21.7598705291748050,28.1946601867675780,78,135,106,91,62,12444,2147236516,2147862098,2147698797,2147495716,2154124278,2156690048,2157831661,2148663360,1270,-2,9,1634
1356631116,5805,40.0200004577636700,21.7616996765136720,36.4819984436035160,255.8249969482422000,31.4403705596923830,21.7595806121826170,28.2000007629394530,79,136,105,91,62,12442,2147268891,2147897234,2147744923,2147501348,2154910326,2157701933,2158869513,2148886317,1274,-2,8,18545
1356631149,5806,37.6899986267089840,21.7618007659912100,36.4818000793457000,256.0625000000000000,31.4377193450927730,21.7596607208251950,28.1900291442871100,79,132,107,90,63,12443,2147313590,2147945883,2147799963,2147523739,2156041344,2159033179,2160148333,2149246646,1324,0,10,34052
1356631201,5807,34.1300010681152340,21.7609996795654300,36.4819984436035160,256.1856994628906000,31.4386005401611330,21.7596302032470700,28.1848602294921880,79,137,106,88,61,12442,2147390381,2148024036,2147895579,2147543780,2158048420,2161449389,2162441938,2149833773,1317,-3,8,22013
1356631234,5808,32.2599983215332000,21.7600002288818360,36.4822998046875000,256.1253967285156000,31.4398803710937500,21.7595901489257800,28.1874504089355470,80,131,105,88,59,12447,2147434313,2148074605,2147955483,2147564754,2159191926,2162825792,2163724763,2150168118,1008,-1,9,58689
1356631267,5803,30.5499992370605470,21.7597999572753900,36.4822006225585940,256.1686096191406000,31.4444999694824220,21.7594509124755860,28.1856803894042970,80,134,107,91,61,12448,2147474596,2148119442,2148003154,2147579154,2160322596,2164116708,2164902701,2150530523,1007,-1,9,36613
1356631300,5806,28.6900005340576170,21.7600002288818360,36.4817008972168000,256.1325073242187500,31.4557094573974600,21.7591094970703120,28.1873397827148440,81,138,107,88,61,12446,2147517019,2148163675,2148041645,2147600045,2161468489,2165383661,2166022189,2150947245,1013,-3,10,41142
1356631333,5808,26.6800003051757800,21.7581996917724600,36.4827003479003900,256.1567993164062500,31.4470596313476560,21.7593708038330080,28.1860904693603500,82,136,106,90,61,12445,2147567460,2148208091,2148095808,2147628114,2162815524,2166803062,2167215881,2151486043,1006,-2,8,59005
